Location: Calgary
(51.0833°N, 114.0833°W)
Time: 09:59:06
(UTC-06:00)

Tiangong 2 - Visible Passes

Search period start: 22 May 2018 00:00
Search period end: 01 June 2018 00:00
Orbit: 382 x 385 km, 42.8° (Epoch: 22 May)

Date Brightness Start Highest point End Pass type
(mag) Time Alt. Az. Time Alt. Az. Time Alt. Az.
22 May 3.2 23:14:27 10° SSW 23:15:19 13° SSW 23:15:19 13° SSW visible
23 May 3.1 22:15:24 10° SSW 22:16:54 13° SSE 22:18:24 10° SE visible
23 May 3.4 23:50:40 10° SW 23:51:07 12° SW 23:51:07 12° SW visible
24 May 2.7 22:51:08 10° SW 22:53:20 18° S 22:54:20 15° SSE visible
25 May 2.8 23:27:37 10° SW 23:29:33 17° SSW 23:29:33 17° SSW visible
26 May 2.8 22:27:57 10° SW 22:30:13 18° S 22:32:26 10° SE visible
27 May 3.0 23:04:41 10° SW 23:06:40 16° SSW 23:07:26 14° S visible
29 May 3.3 22:41:58 10° SW 22:43:28 13° SSW 22:44:57 10° S visible
